Monroe, NC

9:40 PM EDT on March 30, 2017 (GMT -0400)
Monroe

Weather History for KEQY - April, 2013

Change the Weather History Date:

Saturday, April 27, 2013

  Actual Average (KCLT) Record (KCLT)
Temperature  
Mean Temperature 61 °F -  
Max Temperature 68 °F 74 °F 90 °F (1981)
Min Temperature 54 °F 50 °F 37 °F (1972)
Degree Days  
Heating Degree Days 4    
Growing Degree Days 11 (Base 50)    
Moisture  
Dew Point 50 °F    
Average Humidity 74    
Maximum Humidity 97    
Minimum Humidity 45    
Precipitation  
Precipitation 0.13 in - - ()
Sea Level Pressure  
Sea Level Pressure 30.34 in    
Wind  
Wind Speed 2 mph (WNW)    
Max Wind Speed 7 mph    
Max Gust Speed -    
Visibility 8 miles    
Events Rain    
Averages and records for this station are not official NWS values.
T = Trace of Precipitation, MM = Missing Value Source: NWS Daily Summary

Daily Weather History Graph

Daily Weather History Graph

Search for Another Location

Airport or City:

Trip Planner

Search our weather history database for the weather conditions in past years. The results will help you decide how hot, cold, wet, or windy it might be!

Date:

Astronomy

Apr. 27, 2013 Rise Set
Actual Time 6:35 AM EDT 8:04 PM EDT
Civil Twilight 6:08 AM EDT 8:31 PM EDT
Nautical Twilight 5:36 AM EDT 9:04 PM EDT
Astronomical Twilight 5:03 AM EDT 9:37 PM EDT
Moon 10:28 PM EDT (4/27) 7:56 AM EDT (4/27)
Length of Visible Light 14h 22m
Length of Day
13h 29m
Waning Gibbous, 95% of the Moon is Illuminated
Apr 27
Waning Gibbous
May 2
Last Quarter
May 9
New
May 18
First Quarter
May 25
Full

Hourly Weather History & Observations

Time (EDT) Temp. Dew Point Humidity Pressure Visibility Wind Dir Wind Speed Gust Speed Precip Events Conditions
12:53 AM 57.0 °F 50.0 °F 77% 30.35 in 10.0 mi East 3.5 mph - N/A   Overcast
1:53 AM 60.1 °F 43.0 °F 53% 30.36 in 10.0 mi Calm Calm - N/A   Clear
2:53 AM 57.0 °F 44.1 °F 62% 30.35 in 10.0 mi Calm Calm - N/A   Scattered Clouds
3:53 AM 57.0 °F 44.1 °F 62% 30.36 in 10.0 mi Calm Calm - N/A   Mostly Cloudy
4:53 AM 55.9 °F 44.1 °F 64% 30.35 in 10.0 mi Calm Calm - N/A   Overcast
5:53 AM 55.0 °F 45.0 °F 69% 30.36 in 10.0 mi Calm Calm - N/A   Overcast
6:53 AM 54.0 °F 46.9 °F 77% 30.37 in 10.0 mi Calm Calm - N/A   Overcast
7:53 AM 55.0 °F 48.0 °F 77% 30.39 in 10.0 mi Calm Calm - N/A   Overcast
8:53 AM 55.9 °F 48.0 °F 75% 30.39 in 10.0 mi Calm Calm - N/A   Overcast
9:53 AM 59.0 °F 50.0 °F 72% 30.37 in 9.0 mi SSW 3.5 mph - N/A   Overcast
10:53 AM 62.1 °F 46.0 °F 56% 30.38 in 10.0 mi Variable 3.5 mph - N/A   Overcast
11:53 AM 64.0 °F 45.0 °F 50% 30.37 in 10.0 mi Calm Calm - N/A   Overcast
12:53 PM 66.9 °F 45.0 °F 45% 30.35 in 10.0 mi Calm Calm - N/A   Mostly Cloudy
1:53 PM 68.0 °F 46.9 °F 47% 30.33 in 10.0 mi Variable 3.5 mph - N/A   Mostly Cloudy
2:53 PM 66.9 °F 48.9 °F 52% 30.35 in 10.0 mi West 6.9 mph - 0.00 in Rain Light Rain
3:53 PM 62.1 °F 54.0 °F 75% 30.35 in 9.0 mi West 4.6 mph - 0.01 in Rain Light Rain
4:53 PM 59.0 °F 57.0 °F 93% 30.36 in 4.0 mi West 4.6 mph - 0.04 in Rain Light Rain
5:53 PM 57.9 °F 53.1 °F 84% 30.35 in 8.0 mi West 3.5 mph - 0.06 in Rain Light Rain
6:53 PM 57.0 °F 55.0 °F 93% 30.32 in 7.0 mi NE 3.5 mph - 0.02 in Rain Light Rain
7:53 PM 57.0 °F 55.9 °F 96% 30.31 in 6.0 mi Calm Calm - 0.00 in Rain Light Rain
8:53 PM 55.9 °F 55.0 °F 97% 30.32 in 4.0 mi Calm Calm - 0.00 in Rain Light Rain
9:34 PM 57.2 °F 55.4 °F 94% 30.29 in 2.0 mi Calm Calm - 0.00 in Rain Light Rain
9:53 PM 57.0 °F 55.9 °F 96% 30.31 in 3.0 mi Calm Calm - 0.00 in Rain Light Rain
10:53 PM 57.0 °F 55.0 °F 93% 30.30 in 7.0 mi ENE 3.5 mph - 0.00 in   Overcast
11:53 PM 57.0 °F 54.0 °F 89% 30.27 in 10.0 mi Calm Calm - N/A   Overcast